Location: Unspecified
(48.7670°N, 0.0000°E)
Time: 04:35:46
(UTC+00:00)

Vanguard 2 Rocket - Pass Details

Date: 09 October 2020
Orbit: 554 x 3326 km, 32.9° (Epoch: 26 October)

Event Time Altitude Azimuth Distance (km) Brightness Sun altitude
Exits shadow 05:26:20 - 264° (W) 5,936 10.4 -8.3°
Reaches altitude 10° 05:27:03 10° 262° (W) 5,843 10.3 -8.2°
Maximum altitude 05:41:08 27° 214° (SW) 4,953 10.4 -5.8°
Drops below altitude 10° 05:55:45 10° 166° (SSE) 6,026 11.4 -3.4°
Sets 06:01:11 0° 156° (SSE) 6,777 11.8 -2.6°
